Parma Airport

Jump to: basic info | weather | frequencies | runways | comments

Related pages: nearby airports | nearby navaids | notams | map

Basic information (top)

Codes: PMF LIMP
Location: lon 44.824501, lat 10.296400, elev 161 ft / 49 m msl
Status: medium_airport
Scheduled airline service: yes
Links: Wikipedia Mobile

Weather (top)

Current conditions (rec'd 2014/11/21 17:50Z):

LIMP 211750Z VRB01KT 7000 SCT070 09/08 Q1024

Airport forecast (rec'd 2014/11/21 18:21Z):

TAF LIMP 211700Z 2118/2218 VRB04KT 4000 BR BKN050 
      BECMG 2120/2122 1200 
      TEMPO 2200/2206 0600 FG BKN005 
      BECMG 2207/2209 7000 
      BECMG 2216/2218 4000 BR

Frequencies (top)

Verify before use: may be inaccurate or out of date.

APP: 126.55 MHz (APP)
TWR: 118.45 MHz (TWR)

Runways (top)

02/20: 6,962 x 148 ft (2,122 x 45 m) — paved — lighted — threshold 02 displaced 702 ft (214 m) — threshold 20 displaced 597 ft (182 m)

Latest comments (top)

LIMP APPROACH frequency: actual APP frequency is 127.575 (the ... [read]

More... (top)

See also NOTAMs and nearby airports and navaids, or visit the Parma Airport page at the main OurAirports website..